TimeEDT,TemperatureF,Dew PointF,Humidity,Sea Level PressureIn,VisibilityMPH,Wind Direction,Wind SpeedMPH,Gust SpeedMPH,PrecipitationIn,Events,Conditions,WindDirDegrees,DateUTC
12:53 AM,44.1,37.9,79,29.99,10.0,SSE,5.8,-,N/A,,Clear,150,2012-10-10 04:53:00
1:53 AM,44.1,37.9,79,29.97,10.0,SSE,4.6,-,N/A,,Clear,160,2012-10-10 05:53:00
2:53 AM,46.0,39.0,76,29.94,10.0,South,8.1,-,N/A,,Overcast,170,2012-10-10 06:53:00
3:53 AM,46.9,39.0,74,29.93,10.0,South,8.1,-,N/A,,Overcast,190,2012-10-10 07:53:00
4:53 AM,46.9,39.0,74,29.91,10.0,SSW,3.5,-,N/A,,Overcast,200,2012-10-10 08:53:00
5:37 AM,46.0,39.0,76,29.91,10.0,Variable,5.8,-,N/A,,Overcast,0,2012-10-10 09:37:00
5:53 AM,46.0,39.0,76,29.91,10.0,SSW,4.6,-,N/A,,Overcast,200,2012-10-10 09:53:00
6:28 AM,46.0,39.0,76,29.91,10.0,SSW,8.1,-,N/A,,Overcast,200,2012-10-10 10:28:00
6:53 AM,46.0,39.0,76,29.91,10.0,SSW,5.8,-,N/A,,Overcast,210,2012-10-10 10:53:00
7:36 AM,45.0,39.0,80,29.89,10.0,SSW,8.1,-,N/A,,Overcast,200,2012-10-10 11:36:00
7:53 AM,45.0,39.0,80,29.90,10.0,Variable,5.8,-,N/A,,Overcast,0,2012-10-10 11:53:00
8:53 AM,46.0,39.0,76,29.90,10.0,SSW,11.5,18.4,N/A,,Overcast,210,2012-10-10 12:53:00
9:53 AM,48.0,39.9,74,29.88,10.0,SW,9.2,-,N/A,,Mostly Cloudy,220,2012-10-10 13:53:00
10:01 AM,48.0,39.9,74,29.86,10.0,SSW,8.1,18.4,N/A,,Mostly Cloudy,210,2012-10-10 14:01:00
10:53 AM,51.1,39.9,66,29.86,10.0,SW,11.5,19.6,N/A,,Mostly Cloudy,220,2012-10-10 14:53:00
11:53 AM,48.9,41.0,74,29.86,9.0,WSW,11.5,20.7,0.00,Rain,Light Rain,240,2012-10-10 15:53:00
12:23 PM,46.9,42.1,83,29.86,4.0,Variable,5.8,-,0.02,Rain,Light Rain,0,2012-10-10 16:23:00
12:31 PM,46.9,42.1,83,29.86,6.0,West,6.9,-,0.02,Rain,Light Rain,260,2012-10-10 16:31:00
12:53 PM,46.0,41.0,83,29.88,4.0,WSW,10.4,17.3,0.03,Rain,Light Rain,240,2012-10-10 16:53:00
1:23 PM,46.0,41.0,83,29.86,10.0,West,9.2,18.4,0.00,,Overcast,260,2012-10-10 17:23:00
1:37 PM,46.0,39.9,79,29.86,10.0,West,8.1,18.4,0.00,,Overcast,270,2012-10-10 17:37:00
1:53 PM,46.0,41.0,83,29.88,10.0,West,6.9,-,0.00,Rain,Light Rain,280,2012-10-10 17:53:00
2:02 PM,46.0,41.0,83,29.86,7.0,WSW,8.1,-,0.00,Rain,Light Rain,250,2012-10-10 18:02:00
2:25 PM,46.0,41.0,83,29.86,9.0,WSW,9.2,17.3,0.01,Rain,Light Rain,240,2012-10-10 18:25:00
2:53 PM,45.0,39.0,80,29.88,8.0,West,11.5,23.0,0.02,Rain,Light Rain,280,2012-10-10 18:53:00
3:01 PM,45.0,39.9,82,29.87,8.0,WNW,12.7,-,0.01,Rain,Light Rain,300,2012-10-10 19:01:00
3:10 PM,44.1,39.9,85,29.88,2.5,WNW,10.4,-,0.03,Rain,Rain,300,2012-10-10 19:10:00
3:18 PM,44.1,39.9,85,29.88,6.0,WNW,10.4,-,0.03,Rain,Light Rain,300,2012-10-10 19:18:00
3:53 PM,45.0,39.0,80,29.90,10.0,West,10.4,-,0.04,,Overcast,280,2012-10-10 19:53:00
4:53 PM,45.0,37.9,76,29.91,10.0,West,3.5,-,0.00,Rain,Light Rain,270,2012-10-10 20:53:00
5:07 PM,45.0,37.9,76,29.90,5.0,West,10.4,-,0.00,Rain,Light Rain,260,2012-10-10 21:07:00
5:51 PM,42.8,37.4,81,29.92,10.0,West,13.8,-,0.03,,Overcast,280,2012-10-10 21:51:00
5:53 PM,43.0,37.9,82,29.94,10.0,West,16.1,26.5,0.03,,Overcast,280,2012-10-10 21:53:00
6:16 PM,43.0,37.0,80,29.92,10.0,West,10.4,-,N/A,,Overcast,280,2012-10-10 22:16:00
6:44 PM,42.1,37.0,82,29.94,9.0,West,12.7,19.6,0.01,Rain,Light Rain,280,2012-10-10 22:44:00
6:53 PM,42.1,37.0,82,29.96,10.0,West,11.5,-,0.01,,Overcast,280,2012-10-10 22:53:00
7:06 PM,42.1,36.0,79,29.94,10.0,West,10.4,19.6,0.00,Rain,Light Rain,270,2012-10-10 23:06:00
7:14 PM,41.0,36.0,82,29.94,10.0,West,8.1,-,0.00,,Overcast,280,2012-10-10 23:14:00
7:53 PM,41.0,36.0,82,29.98,10.0,West,5.8,-,0.00,,Overcast,270,2012-10-10 23:53:00
8:25 PM,42.1,37.0,82,29.96,8.0,West,8.1,-,0.00,Rain,Light Rain,280,2012-10-11 00:25:00
8:30 PM,41.0,37.0,86,29.97,6.0,West,9.2,-,0.01,Rain,Light Rain,280,2012-10-11 00:30:00
8:53 PM,41.0,36.0,82,30.00,9.0,West,11.5,21.9,0.02,Rain,Light Rain,280,2012-10-11 00:53:00
9:05 PM,41.0,36.0,82,29.98,10.0,West,12.7,19.6,0.00,,Overcast,280,2012-10-11 01:05:00
9:53 PM,39.9,35.1,83,30.03,10.0,West,9.2,18.4,0.01,,Overcast,280,2012-10-11 01:53:00
10:06 PM,39.9,35.1,83,30.01,10.0,West,9.2,17.3,N/A,,Overcast,280,2012-10-11 02:06:00
10:27 PM,39.9,35.1,83,30.02,10.0,Variable,6.9,-,0.00,Rain,Light Rain,0,2012-10-11 02:27:00
10:48 PM,39.2,33.8,81,30.03,10.0,West,13.8,21.9,0.00,,Overcast,280,2012-10-11 02:48:00
10:53 PM,39.0,34.0,82,30.05,10.0,West,9.2,21.9,0.00,,Overcast,270,2012-10-11 02:53:00
11:17 PM,39.0,34.0,82,30.04,10.0,West,11.5,-,N/A,,Mostly Cloudy,280,2012-10-11 03:17:00
11:53 PM,39.0,34.0,82,30.07,10.0,West,11.5,18.4,N/A,,Overcast,280,2012-10-11 03:53:00